Location: Cape Canaveral
(28.3922°N, 80.6077°W)
Time: 05:22:28
(UTC-04:00)

ISS - Visible Passes

Search period start: 22 October 2019 00:00
Search period end: 01 November 2019 00:00
Orbit: 411 x 421 km, 51.6° (Epoch: 22 October)

Date Brightness Start Highest point End Pass type
(mag) Time Alt. Az. Time Alt. Az. Time Alt. Az.
22 Oct -3.7 06:57:05 10° SW 07:00:27 87° SE 07:03:48 10° NE visible
23 Oct -2.4 06:09:08 12° SSW 06:11:56 38° SE 06:15:06 10° ENE visible
24 Oct -1.1 05:23:55 18° ESE 05:23:55 18° ESE 05:25:56 10° E visible
24 Oct -2.5 06:57:13 10° W 07:00:03 25° NW 07:02:53 10° NNE visible
25 Oct -3.5 06:11:22 48° NW 06:11:23 48° NW 06:14:40 10° NNE visible
26 Oct -0.8 05:25:34 14° NE 05:25:34 14° NE 05:26:09 10° NE visible
27 Oct -1.4 06:12:29 13° N 06:12:29 13° N 06:13:12 10° N visible
